PUA253 SBPA-SUMU

Flight info

Callsign PUA253
Flight time 1h 25m
Altitude 40000
Route DEVOT UN857 MIMOL UM792 TELAK
Aircraft B772/H-SDE2E3FGHIJ5LORVWXY/LB1D1

Departure

Time 2026-04-27 16:11
Airport Porto Alegre-Salgado Filho International Airport (SBPA)

Arrival

Time 2026-04-27 17:36
Airport Carrasco General Cesáreo L. Berisso International Airport (SUMU)
Time Latitude Longitude Altitude Speed Heading
2026-04-27 15:57 -29.99170 -51.17940 18 ft 0 kts 206°
2026-04-27 16:02 -29.99177 -51.17942 45 ft 4 kts 192°
2026-04-27 16:02 -29.99206 -51.17916 18 ft 6 kts 112°
2026-04-27 16:02 -29.99200 -51.17882 18 ft 0 kts 74°
2026-04-27 16:03 -29.99198 -51.17875 18 ft 5 kts 73°
2026-04-27 16:04 -29.99206 -51.17808 20 ft 10 kts 128°
2026-04-27 16:04 -29.99255 -51.17731 18 ft 13 kts 103°
2026-04-27 16:04 -29.99261 -51.17624 18 ft 14 kts 92°
2026-04-27 16:04 -29.99263 -51.17508 18 ft 15 kts 90°
2026-04-27 16:05 -29.99265 -51.17389 18 ft 15 kts 90°
2026-04-27 16:05 -29.99266 -51.17261 18 ft 16 kts 91°
2026-04-27 16:05 -29.99270 -51.17127 18 ft 17 kts 91°
2026-04-27 16:05 -29.99273 -51.16991 18 ft 17 kts 91°
2026-04-27 16:06 -29.99277 -51.16852 19 ft 17 kts 91°
2026-04-27 16:06 -29.99280 -51.16712 19 ft 17 kts 91°
2026-04-27 16:06 -29.99281 -51.16572 19 ft 18 kts 91°
2026-04-27 16:06 -29.99285 -51.16431 19 ft 18 kts 97°
2026-04-27 16:07 -29.99291 -51.16295 22 ft 8 kts 100°
2026-04-27 16:07 -29.99331 -51.16244 20 ft 9 kts 149°
2026-04-27 16:07 -29.99390 -51.16232 23 ft 9 kts 178°
2026-04-27 16:07 -29.99451 -51.16221 27 ft 9 kts 153°
2026-04-27 16:08 -29.99478 -51.16160 26 ft 9 kts 95°
2026-04-27 16:08 -29.99482 -51.16076 22 ft 14 kts 92°
2026-04-27 16:08 -29.99485 -51.15899 21 ft 25 kts 91°
2026-04-27 16:08 -29.99488 -51.15713 22 ft 20 kts 91°
2026-04-27 16:09 -29.99491 -51.15544 19 ft 22 kts 91°
2026-04-27 16:09 -29.99487 -51.15205 19 ft 8 kts 73°
2026-04-27 16:09 -29.99465 -51.15140 19 ft 9 kts 66°
2026-04-27 16:10 -29.99493 -51.15052 18 ft 11 kts 234°
2026-04-27 16:10 -29.99497 -51.15781 24 ft 137 kts 269°
2026-04-27 16:11 -29.99547 -51.17118 837 ft 173 kts 269°
2026-04-27 16:11 -29.99475 -51.19787 3999 ft 171 kts 268°
2026-04-27 16:12 -29.99395 -51.23008 5322 ft 227 kts 269°
2026-04-27 16:12 -29.99416 -51.24874 5883 ft 236 kts 258°
2026-04-27 16:12 -30.01488 -51.27747 5974 ft 251 kts 212°
2026-04-27 16:13 -30.03149 -51.28422 5965 ft 258 kts 194°
2026-04-27 16:13 -30.06802 -51.28513 5980 ft 266 kts 186°
2026-04-27 16:13 -30.08660 -51.28499 5978 ft 268 kts 186°
2026-04-27 16:14 -30.12392 -51.28531 5981 ft 268 kts 187°
2026-04-27 16:14 -30.16094 -51.28617 5978 ft 258 kts 193°
2026-04-27 16:15 -30.19003 -51.30511 7123 ft 240 kts 224°
2026-04-27 16:15 -30.21598 -51.32981 9581 ft 245 kts 226°
2026-04-27 16:16 -30.24328 -51.35614 11255 ft 280 kts 227°
2026-04-27 16:16 -30.27661 -51.38862 12132 ft 336 kts 226°
2026-04-27 16:17 -30.31341 -51.42403 14287 ft 349 kts 226°
2026-04-27 16:17 -30.35114 -51.46035 16381 ft 356 kts 226°
2026-04-27 16:18 -30.38965 -51.49758 18364 ft 365 kts 227°
2026-04-27 16:18 -30.42928 -51.53609 19979 ft 377 kts 227°
2026-04-27 16:19 -30.44954 -51.55577 20779 ft 383 kts 227°
2026-04-27 16:19 -30.46989 -51.57550 21537 ft 390 kts 227°
2026-04-27 16:20 -30.52544 -51.64327 23649 ft 389 kts 243°
2026-04-27 16:20 -30.54058 -51.66941 24369 ft 391 kts 243°
2026-04-27 16:20 -30.57156 -51.72151 25970 ft 394 kts 244°
2026-04-27 16:21 -30.58727 -51.74775 26627 ft 398 kts 244°
2026-04-27 16:21 -30.63521 -51.82790 28579 ft 408 kts 245°
2026-04-27 16:22 -30.65144 -51.85502 29226 ft 411 kts 245°
2026-04-27 16:22 -30.68471 -51.90984 30289 ft 419 kts 244°
2026-04-27 16:22 -30.70248 -51.93683 30835 ft 421 kts 243°
2026-04-27 16:23 -30.72025 -51.96311 31535 ft 416 kts 243°
2026-04-27 16:23 -30.75561 -52.01533 32946 ft 406 kts 244°
2026-04-27 16:23 -30.77293 -52.04125 33514 ft 404 kts 245°
2026-04-27 16:24 -30.79004 -52.06710 34068 ft 403 kts 245°
2026-04-27 16:24 -30.82401 -52.11867 34982 ft 401 kts 245°
2026-04-27 16:25 -30.85788 -52.17029 35742 ft 400 kts 245°
2026-04-27 16:25 -30.89170 -52.22181 36457 ft 401 kts 246°
2026-04-27 16:26 -30.92530 -52.27316 37158 ft 401 kts 245°
2026-04-27 16:26 -30.95923 -52.32496 37785 ft 403 kts 245°
2026-04-27 16:27 -30.99323 -52.37694 38486 ft 402 kts 245°
2026-04-27 16:27 -31.04410 -52.45486 39227 ft 403 kts 245°
2026-04-27 16:28 -31.07808 -52.50702 39693 ft 403 kts 244°
2026-04-27 16:28 -31.11210 -52.55938 39999 ft 408 kts 244°
2026-04-27 16:29 -31.16330 -52.63820 40036 ft 404 kts 244°
2026-04-27 16:30 -31.23059 -52.74197 40061 ft 400 kts 243°
2026-04-27 16:31 -31.32413 -52.86459 40061 ft 405 kts 240°
2026-04-27 16:32 -31.38064 -52.93834 40057 ft 406 kts 240°
2026-04-27 16:33 -31.43716 -53.01238 40083 ft 406 kts 240°
2026-04-27 16:33 -31.47460 -53.06160 40072 ft 407 kts 239°
2026-04-27 16:34 -31.51238 -53.11133 40059 ft 408 kts 239°
2026-04-27 16:34 -31.55024 -53.16125 40064 ft 411 kts 239°
2026-04-27 16:35 -31.58821 -53.21136 40059 ft 411 kts 239°
2026-04-27 16:36 -31.64498 -53.28639 40075 ft 411 kts 239°
2026-04-27 16:36 -31.68300 -53.33675 40062 ft 413 kts 239°
2026-04-27 16:37 -31.72112 -53.38730 40070 ft 413 kts 239°
2026-04-27 16:37 -31.75925 -53.43795 40064 ft 414 kts 239°
2026-04-27 16:38 -31.79744 -53.48873 40064 ft 414 kts 239°
2026-04-27 16:38 -31.83555 -53.53948 40065 ft 414 kts 239°
2026-04-27 16:39 -31.87367 -53.59032 40072 ft 414 kts 239°
2026-04-27 16:39 -31.91152 -53.64089 40069 ft 414 kts 239°
2026-04-27 16:40 -31.94959 -53.69183 40080 ft 414 kts 239°
2026-04-27 16:40 -31.98765 -53.74286 40091 ft 414 kts 239°
2026-04-27 16:41 -32.02572 -53.79403 40074 ft 415 kts 238°
2026-04-27 16:41 -32.06389 -53.84524 40068 ft 416 kts 238°
2026-04-27 16:42 -32.10213 -53.89643 40069 ft 416 kts 238°
2026-04-27 16:42 -32.13392 -53.93908 40063 ft 416 kts 238°
2026-04-27 16:43 -32.17212 -53.99051 40062 ft 416 kts 238°
2026-04-27 16:43 -32.21027 -54.04200 40072 ft 417 kts 238°
2026-04-27 16:44 -32.24841 -54.09362 40057 ft 417 kts 238°
2026-04-27 16:44 -32.28633 -54.14499 40047 ft 417 kts 238°
2026-04-27 16:45 -32.32588 -54.19614 40060 ft 425 kts 232°
2026-04-27 16:45 -32.37169 -54.24081 40072 ft 434 kts 226°
2026-04-27 16:46 -32.42349 -54.27948 40068 ft 443 kts 221°
2026-04-27 16:46 -32.47680 -54.31611 40071 ft 442 kts 220°
2026-04-27 16:47 -32.52987 -54.35285 40069 ft 441 kts 221°
2026-04-27 16:47 -32.58272 -54.38990 40073 ft 440 kts 221°
2026-04-27 16:48 -32.63535 -54.42704 40070 ft 441 kts 221°
2026-04-27 16:48 -32.68801 -54.46428 40062 ft 440 kts 221°
2026-04-27 16:49 -32.76657 -54.51989 40058 ft 440 kts 220°
2026-04-27 16:49 -32.81911 -54.55716 40063 ft 440 kts 220°
2026-04-27 16:50 -32.87168 -54.59450 40053 ft 440 kts 220°
2026-04-27 16:50 -32.92444 -54.63203 40058 ft 441 kts 220°
2026-04-27 16:51 -32.97716 -54.66957 40046 ft 442 kts 220°
2026-04-27 16:51 -33.02997 -54.70721 40055 ft 442 kts 220°
2026-04-27 16:52 -33.08280 -54.74497 40045 ft 443 kts 220°
2026-04-27 16:52 -33.13536 -54.78256 40056 ft 443 kts 219°
2026-04-27 16:53 -33.18834 -54.82052 40090 ft 444 kts 219°
2026-04-27 16:53 -33.24175 -54.85891 39290 ft 456 kts 219°
2026-04-27 16:54 -33.26877 -54.87831 38737 ft 444 kts 219°
2026-04-27 16:54 -33.29489 -54.89694 37629 ft 432 kts 219°
2026-04-27 16:54 -33.32066 -54.91546 36751 ft 433 kts 219°
2026-04-27 16:54 -33.34651 -54.93414 35858 ft 435 kts 219°
2026-04-27 16:55 -33.37244 -54.95292 34897 ft 438 kts 219°
2026-04-27 16:55 -33.39862 -54.97184 33912 ft 441 kts 218°
2026-04-27 16:55 -33.42459 -54.99062 32822 ft 442 kts 218°
2026-04-27 16:55 -33.45098 -55.00972 31679 ft 443 kts 217°
2026-04-27 16:56 -33.47736 -55.02879 30701 ft 442 kts 217°
2026-04-27 16:56 -33.50365 -55.04772 29826 ft 437 kts 216°
2026-04-27 16:56 -33.52959 -55.06636 28899 ft 432 kts 216°
2026-04-27 16:56 -33.55526 -55.08477 28071 ft 426 kts 216°
2026-04-27 16:57 -33.58053 -55.10294 27258 ft 421 kts 216°
2026-04-27 16:57 -33.60547 -55.12094 26460 ft 416 kts 216°
2026-04-27 16:57 -33.63015 -55.13878 25685 ft 412 kts 216°
2026-04-27 16:57 -33.65454 -55.15643 24939 ft 408 kts 216°
2026-04-27 16:58 -33.67874 -55.17399 24167 ft 404 kts 216°
2026-04-27 16:58 -33.70278 -55.19144 23376 ft 402 kts 216°
2026-04-27 16:58 -33.72618 -55.20842 22535 ft 381 kts 216°
2026-04-27 16:58 -33.74850 -55.22458 21852 ft 373 kts 216°
2026-04-27 16:59 -33.77068 -55.24073 21151 ft 372 kts 216°
2026-04-27 16:59 -33.79278 -55.25685 20469 ft 371 kts 215°
2026-04-27 16:59 -33.81453 -55.27274 19782 ft 370 kts 215°
2026-04-27 16:59 -33.83658 -55.28883 19106 ft 370 kts 214°
2026-04-27 17:00 -33.87296 -55.31538 17904 ft 360 kts 214°
2026-04-27 17:00 -33.90162 -55.33628 16980 ft 360 kts 214°
2026-04-27 17:00 -33.92309 -55.35196 16313 ft 360 kts 214°
2026-04-27 17:01 -33.94458 -55.36768 15657 ft 361 kts 214°
2026-04-27 17:01 -33.96606 -55.38339 15011 ft 362 kts 214°
2026-04-27 17:01 -33.98741 -55.39903 14363 ft 364 kts 214°
2026-04-27 17:01 -34.00913 -55.41493 13700 ft 366 kts 214°
2026-04-27 17:02 -34.03090 -55.43089 13065 ft 361 kts 214°
2026-04-27 17:02 -34.05191 -55.44627 12770 ft 342 kts 213°
2026-04-27 17:02 -34.07154 -55.46059 12580 ft 317 kts 213°
2026-04-27 17:02 -34.08998 -55.47408 12461 ft 305 kts 213°
2026-04-27 17:03 -34.10794 -55.48727 12343 ft 298 kts 213°
2026-04-27 17:03 -34.11036 -55.48904 12315 ft 297 kts 213°
2026-04-27 17:20 -34.12551 -55.50018 12201 ft 290 kts 213°
2026-04-27 17:20 -34.14223 -55.51246 12083 ft 273 kts 213°
2026-04-27 17:21 -34.15825 -55.52423 11878 ft 269 kts 213°
2026-04-27 17:21 -34.17429 -55.53607 11587 ft 271 kts 213°
2026-04-27 17:21 -34.19047 -55.54801 11254 ft 274 kts 213°
2026-04-27 17:21 -34.20650 -55.55985 10905 ft 267 kts 213°
2026-04-27 17:22 -34.22219 -55.57143 10576 ft 262 kts 213°
2026-04-27 17:22 -34.23781 -55.58297 10281 ft 265 kts 213°
2026-04-27 17:22 -34.25366 -55.59471 9955 ft 269 kts 212°
2026-04-27 17:22 -34.26976 -55.60664 9647 ft 271 kts 212°
2026-04-27 17:23 -34.28580 -55.61850 9341 ft 269 kts 212°
2026-04-27 17:23 -34.30153 -55.63011 8942 ft 262 kts 212°
2026-04-27 17:23 -34.31695 -55.64147 8601 ft 261 kts 212°
2026-04-27 17:23 -34.33215 -55.65266 8271 ft 256 kts 212°
2026-04-27 17:24 -34.34767 -55.66287 7952 ft 253 kts 202°
2026-04-27 17:24 -34.36466 -55.66872 7664 ft 256 kts 195°
2026-04-27 17:24 -34.38225 -55.67330 7365 ft 261 kts 194°
2026-04-27 17:24 -34.39996 -55.67782 7049 ft 258 kts 193°
2026-04-27 17:25 -34.41727 -55.68231 6736 ft 251 kts 194°
2026-04-27 17:25 -34.43419 -55.68682 6429 ft 246 kts 194°
2026-04-27 17:25 -34.45084 -55.69134 6134 ft 245 kts 194°
2026-04-27 17:25 -34.46761 -55.69598 5836 ft 250 kts 194°
2026-04-27 17:26 -34.48463 -55.70071 5523 ft 249 kts 194°
2026-04-27 17:26 -34.50140 -55.70542 5246 ft 247 kts 194°
2026-04-27 17:26 -34.51830 -55.71019 4952 ft 251 kts 194°
2026-04-27 17:26 -34.53511 -55.71496 4652 ft 248 kts 194°
2026-04-27 17:27 -34.55174 -55.71967 4335 ft 242 kts 195°
2026-04-27 17:27 -34.56801 -55.72430 4043 ft 237 kts 195°
2026-04-27 17:27 -34.58415 -55.72890 3791 ft 241 kts 195°
2026-04-27 17:27 -34.60042 -55.73354 3632 ft 236 kts 195°
2026-04-27 17:28 -34.61604 -55.73794 3517 ft 225 kts 196°
2026-04-27 17:28 -34.63078 -55.74208 3420 ft 210 kts 196°
2026-04-27 17:28 -34.65758 -55.74963 3171 ft 195 kts 197°
2026-04-27 17:29 -34.66586 -55.75323 3068 ft 188 kts 212°
2026-04-27 17:29 -34.67537 -55.76379 3012 ft 186 kts 230°
2026-04-27 17:29 -34.68341 -55.77628 3014 ft 186 kts 232°
2026-04-27 17:29 -34.69089 -55.78847 2994 ft 174 kts 231°
2026-04-27 17:30 -34.69792 -55.79999 2985 ft 168 kts 231°
2026-04-27 17:30 -34.71129 -55.82193 3004 ft 149 kts 231°
2026-04-27 17:30 -34.71736 -55.83188 3005 ft 147 kts 231°
2026-04-27 17:31 -34.72343 -55.84185 3008 ft 146 kts 231°
2026-04-27 17:31 -34.72937 -55.85161 3008 ft 140 kts 231°
2026-04-27 17:31 -34.73492 -55.86072 3029 ft 130 kts 231°
2026-04-27 17:31 -34.74033 -55.86961 3001 ft 131 kts 231°
2026-04-27 17:32 -34.74578 -55.87857 2834 ft 133 kts 231°
2026-04-27 17:32 -34.75659 -55.89633 2510 ft 129 kts 231°
2026-04-27 17:32 -34.76197 -55.90516 2327 ft 131 kts 231°
2026-04-27 17:33 -34.76736 -55.91406 2148 ft 129 kts 230°
2026-04-27 17:33 -34.77265 -55.92274 1970 ft 126 kts 230°
2026-04-27 17:33 -34.77785 -55.93128 1782 ft 126 kts 231°
2026-04-27 17:33 -34.78311 -55.93994 1635 ft 128 kts 231°
2026-04-27 17:34 -34.78845 -55.94870 1449 ft 129 kts 231°
2026-04-27 17:34 -34.79382 -55.95756 1285 ft 130 kts 231°
2026-04-27 17:34 -34.79917 -55.96634 1095 ft 127 kts 230°
2026-04-27 17:34 -34.80430 -55.97478 911 ft 123 kts 232°
2026-04-27 17:35 -34.80961 -55.98353 764 ft 140 kts 232°
2026-04-27 17:35 -34.81540 -55.99306 569 ft 136 kts 233°
2026-04-27 17:35 -34.82067 -56.00165 367 ft 118 kts 236°
2026-04-27 17:35 -34.82553 -56.00972 216 ft 124 kts 234°
2026-04-27 17:36 -34.83065 -56.01790 96 ft 116 kts 236°
2026-04-27 17:36 -34.83477 -56.02475 91 ft 77 kts 233°
2026-04-27 17:36 -34.83646 -56.02761 92 ft 24 kts 232°
2026-04-27 17:36 -34.83789 -56.02848 90 ft 24 kts 180°
2026-04-27 17:37 -34.83938 -56.02803 91 ft 19 kts 142°
2026-04-27 17:37 -34.83951 -56.02649 91 ft 20 kts 79°
2026-04-27 17:37 -34.83944 -56.02477 87 ft 21 kts 91°
2026-04-27 17:37 -34.83941 -56.02298 87 ft 21 kts 74°
2026-04-27 17:38 -34.83810 -56.02232 90 ft 22 kts 17°
2026-04-27 17:38 -34.83703 -56.02109 92 ft 22 kts 53°
2026-04-27 17:38 -34.83657 -56.02032 89 ft 6 kts 53°
2026-04-27 17:38 -34.83630 -56.01989 90 ft 7 kts 54°
2026-04-27 17:39 -34.83623 -56.01929 90 ft 8 kts 112°
2026-04-27 17:39 -34.83656 -56.01879 89 ft 6 kts 137°
2026-04-27 17:39 -34.83664 -56.01871 91 ft 0 kts 140°